This is the latest recevied weather packets stored in our database for station/object K2BIG. If no packets are shown the sender has not sent any weather packets the latest 1 day(s).
| Time | Temp. | Humidity | Pressure | Rain* | Wind** | Luminosity | Snow |
|---|---|---|---|---|---|---|---|
| 1777988416 | 22.22° C | 62% | 1009.7 hPa | 0 mm | 2.68 m/s, 203° | - | - |
| 1777988116 | 22.22° C | 64% | 1009.7 hPa | 0 mm | 1.34 m/s, 225° | - | - |
| 1777987816 | 21.67° C | 63% | 1009.6 hPa | 0 mm | 1.34 m/s, 225° | - | - |
| 1777987516 | 21.67° C | 62% | 1009.8 hPa | 0 mm | 2.24 m/s, 203° | - | - |
| 1777987216 | 21.67° C | 63% | 1009.7 hPa | 0 mm | 1.34 m/s, 180° | - | - |
| 1777986916 | 21.11° C | 66% | 1009.7 hPa | 0 mm | 0.45 m/s, 203° | - | - |
| 1777986616 | 21.11° C | 66% | 1009.8 hPa | 0 mm | 0.89 m/s, 225° | - | - |
| 1777986316 | 20.56° C | 67% | 1009.8 hPa | 0 mm | 1.34 m/s, 225° | - | - |
| 1777986016 | 20.56° C | 68% | 1009.9 hPa | 0 mm | 0.89 m/s, 270° | - | - |
| 1777985716 | 20° C | 69% | 1009.8 hPa | 0 mm | 1.34 m/s, 225° | - | - |
| 1777985416 | 20° C | 68% | 1009.8 hPa | 0 mm | 1.34 m/s, 248° | - | - |
| 1777985116 | 19.44° C | 71% | 1009.9 hPa | 0 mm | 0.45 m/s, 248° | - | - |
| 1777984816 | 18.89° C | 73% | 1009.8 hPa | 0 mm | 0.89 m/s, 225° | - | - |
| 1777984516 | 18.33° C | 72% | 1009.7 hPa | 0 mm | 0.45 m/s, 158° | - | - |
| 1777984216 | 17.78° C | 74% | 1009.4 hPa | 0 mm | 0.45 m/s, 203° | - | - |
| 1777983916 | 17.22° C | 75% | 1009.6 hPa | 0 mm | 0.45 m/s, 180° | - | - |
| 1777983616 | 17.22° C | 77% | 1009.6 hPa | 0 mm | 0.89 m/s, 203° | - | - |
| 1777983316 | 16.11° C | 80% | 1009.6 hPa | 0 mm | 0.45 m/s, 203° | - | - |
| 1777983016 | 15.56° C | 81% | 1009.6 hPa | 0 mm | 0.45 m/s, 180° | - | - |
| 1777982416 | 14.44° C | 85% | 1009.5 hPa | 0 mm | 0.89 m/s, 203° | - | - |
| 1777981816 | 13.33° C | 87% | 1009.7 hPa | 0 mm | 0.89 m/s, 225° | - | - |
| 1777981516 | 12.78° C | 89% | 1009.8 hPa | 0 mm | 0.89 m/s, 180° | - | - |
| 1777980316 | 12.22° C | 87% | 1009.8 hPa | 0 mm | 0.45 m/s, 225° | - | - |
| 1777980016 | 12.22° C | 86% | 1009.7 hPa | 0 mm | 0.89 m/s, 225° | - | - |
| 1777979715 | 12.22° C | 86% | 1009.6 hPa | 0 mm | 0.45 m/s, 180° | - | - |
* Rain latest hour (hover to see other rain measurements)
** Current wind speed in m/s (hover to see current wind gust speed)